Weather History for San Antonio, TX

Change the Weather History Date:

Thursday, July 11, 2013

  Actual Average Record
Temperature  
Mean Temperature 88 °F 84 °F  
Max Temperature 98 °F 94 °F 104 °F (1917)
Min Temperature 78 °F 75 °F 60 °F (1905)
Degree Days  
Heating Degree Days 0 0  
Month to date heating degree days 0 0  
Since 1 June heating degree days 0 0  
Since 1 July heating degree days 0 0  
Cooling Degree Days 23 19  
Month to date cooling degree days 213 209  
Year to date cooling degree days 1405 1361  
Since 1 June cooling degree days 788 732  
Growing Degree Days 38 (Base 50)    
Moisture  
Dew Point 68 °F    
Average Humidity 58    
Maximum Humidity 85    
Minimum Humidity 30    
Precipitation  
Precipitation 0.00 in 0.11 in 2.83 in (2012)
Month to date precipitation 0.01 1.31  
Year to date precipitation 21.87 17.42  
Snow  
Snow 0.00 in - - ()
Month to date snowfall 0.0  
Since 1 June snowfall 0.0  
Since 1 July snowfall 0.0  
Snow Depth 0.00 in    
Sea Level Pressure  
Sea Level Pressure 29.92 in    
Wind  
Wind Speed 8 mph (South)    
Max Wind Speed 21 mph    
Max Gust Speed 26 mph    
Visibility 10 miles    
Events      
T = Trace of Precipitation, MM = Missing Value Source: NWS Daily Summary

Daily Weather History Graph

Daily Weather History Graph

Search for Another Location

Airport:

Trip Planner

Search our weather history database for the weather conditions in past years. The results will help you decide how hot, cold, wet, or windy it might be!

Date:

Astronomy

Jul. 11, 2013 Rise Set
Actual Time 6:42 AM CDT 8:36 PM CDT
Civil Twilight 6:15 AM CDT 9:03 PM CDT
Nautical Twilight 5:42 AM CDT 9:35 PM CDT
Astronomical Twilight 5:08 AM CDT 10:10 PM CDT
Moon 9:44 AM CDT (7/11) 10:38 PM CDT (7/11)
Length of Visible Light 14h 48m
Length of Day
13h 54m
Waxing Crescent, 11% of the Moon is Illuminated
Jul 11
Waxing Crescent
Jul 15
First Quarter
Jul 22
Full
Jul 29
Last Quarter
Aug 6
New

Hourly Weather History & Observations

Time (CDT) Temp. Heat Index Dew Point Humidity Pressure Visibility Wind Dir Wind Speed Gust Speed Precip Events Conditions
12:51 AM 82.9 °F 87.0 °F 70.0 °F 65% 29.96 in 10.0 mi SSE 12.7 mph - N/A   Partly Cloudy
1:51 AM 81.0 °F 84.9 °F 71.1 °F 72% 29.97 in 10.0 mi South 8.1 mph - N/A   Partly Cloudy
2:51 AM 80.1 °F 83.8 °F 72.0 °F 76% 29.98 in 10.0 mi South 8.1 mph - N/A   Partly Cloudy
3:51 AM 79.0 °F - 72.0 °F 79% 29.97 in 10.0 mi South 6.9 mph - N/A   Partly Cloudy
4:51 AM 78.1 °F - 72.0 °F 81% 29.97 in 10.0 mi South 5.8 mph - N/A   Partly Cloudy
5:51 AM 78.1 °F - 73.0 °F 84% 29.97 in 10.0 mi South 4.6 mph - N/A   Scattered Clouds
6:51 AM 78.1 °F - 73.0 °F 84% 29.97 in 10.0 mi South 5.8 mph - N/A   Mostly Cloudy
7:51 AM 78.1 °F - 73.9 °F 87% 29.97 in 10.0 mi South 6.9 mph - N/A   Mostly Cloudy
8:51 AM 80.1 °F 84.2 °F 73.0 °F 79% 29.97 in 10.0 mi South 8.1 mph - N/A   Scattered Clouds
9:51 AM 84.0 °F 89.6 °F 72.0 °F 67% 29.97 in 10.0 mi SW 8.1 mph - N/A   Scattered Clouds
10:51 AM 87.1 °F 92.8 °F 71.1 °F 59% 29.96 in 10.0 mi South 8.1 mph - N/A   Scattered Clouds
11:51 AM 91.0 °F 96.6 °F 70.0 °F 50% 29.95 in 10.0 mi SSW 8.1 mph - N/A   Mostly Cloudy
12:51 PM 90.0 °F 93.6 °F 68.0 °F 48% 29.94 in 10.0 mi Calm Calm - N/A   Mostly Cloudy
1:51 PM 91.9 °F 95.4 °F 66.9 °F 44% 29.93 in 10.0 mi Calm Calm - N/A   Mostly Cloudy
2:51 PM 95.0 °F 97.9 °F 66.0 °F 38% 29.91 in 10.0 mi SSE 9.2 mph - N/A   Mostly Cloudy
3:51 PM 95.0 °F 97.0 °F 64.0 °F 36% 29.89 in 10.0 mi Calm Calm - N/A   Mostly Cloudy
4:51 PM 97.0 °F 99.9 °F 64.9 °F 35% 29.87 in 10.0 mi Variable 6.9 mph - N/A   Scattered Clouds
5:51 PM 98.1 °F 99.6 °F 63.0 °F 31% 29.85 in 10.0 mi SSE 11.5 mph 20.7 mph N/A   Mostly Cloudy
6:51 PM 96.1 °F 96.4 °F 61.0 °F 31% 29.84 in 10.0 mi SSE 9.2 mph - N/A   Mostly Cloudy
7:51 PM 95.0 °F 96.0 °F 63.0 °F 34% 29.84 in 10.0 mi SE 9.2 mph - N/A   Mostly Cloudy
8:51 PM 90.0 °F 90.6 °F 63.0 °F 40% 29.85 in 10.0 mi SE 8.1 mph - N/A   Scattered Clouds
9:51 PM 89.1 °F 90.3 °F 64.0 °F 43% 29.86 in 10.0 mi SE 12.7 mph - N/A   Scattered Clouds
10:51 PM 87.1 °F 89.9 °F 66.9 °F 51% 29.88 in 10.0 mi SSE 16.1 mph 24.2 mph N/A   Scattered Clouds
11:51 PM 84.9 °F 87.6 °F 66.9 °F 55% 29.90 in 10.0 mi South 12.7 mph - N/A   Scattered Clouds